• In Russia
  • List of Countries
  • For 7 days
  • Water Temperature
  • Satellite Maps
  • Weather Map
  • Weather Widgets
  • user-avatar
    Login

    Hourly Weather Hrazdan

    Today, 18 February, Monday

    Time Temperature Precipitation Wind Pressure Humidity
    00:00 -8°C° 0 mm 2 mps 607 mmHg 76%
    01:00 -9°C° 0 mm 2 mps 607 mmHg 76%
    02:00 -9°C° 0 mm 2 mps 607 mmHg 77%
    03:00 -9°C° 0 mm 2 mps 607 mmHg 77%
    04:00 -9°C° 0 mm 2 mps 606 mmHg 77%
    05:00 -10°C° 0 mm 3 mps 606 mmHg 77%
    06:00 -12°C° 0 mm 3 mps 606 mmHg 77%
    07:00 -9°C° 0 mm 3 mps 606 mmHg 77%
    08:00 -8°C° 0 mm 3 mps 606 mmHg 77%
    09:00 -7°C° 0 mm 3 mps 606 mmHg 77%
    10:00 -7°C° 0 mm 4 mps 606 mmHg 75%
    11:00 -5°C° 0 mm 4 mps 606 mmHg 74%
    12:00 -4°C° 0 mm 4 mps 605 mmHg 73%
    13:00 -4°C° 0 mm 4 mps 605 mmHg 73%
    14:00 -3°C° 0 mm 4 mps 604 mmHg 72%
    15:00 -3°C° 0 mm 4 mps 604 mmHg 72%
    16:00 -4°C° 0 mm 4 mps 604 mmHg 73%
    17:00 -5°C° 0 mm 4 mps 603 mmHg 75%
    18:00 -6°C° 0 mm 3 mps 603 mmHg 77%
    19:00 -7°C° 0 mm 3 mps 603 mmHg 77%
    20:00 -7°C° 0 mm 3 mps 603 mmHg 77%
    21:00 -8°C° 0 mm 3 mps 604 mmHg 77%
    22:00 -8°C° 0 mm 3 mps 603 mmHg 77%
    23:00 -8°C° 0 mm 3 mps 603 mmHg 77%

    Tomorrow, 19 February, Tuesday

    Time Temperature Precipitation Wind Pressure Humidity
    00:00 -8°C° 0 mm 2 mps 603 mmHg 77%
    01:00 -8°C° 0 mm 2 mps 603 mmHg 77%
    02:00 -8°C° 0 mm 2 mps 603 mmHg 77%
    03:00 -8°C° 0 mm 2 mps 604 mmHg 77%
    04:00 -8°C° 0 mm 2 mps 604 mmHg 77%
    05:00 -9°C° 0 mm 2 mps 604 mmHg 77%
    06:00 -9°C° 0 mm 2 mps 604 mmHg 77%
    07:00 -8°C° 0 mm 2 mps 605 mmHg 76%
    08:00 -7°C° 0 mm 2 mps 606 mmHg 76%
    09:00 -6°C° 0 mm 2 mps 606 mmHg 75%
    10:00 -5°C° 0 mm 2 mps 607 mmHg 71%
    11:00 -5°C° 0 mm 3 mps 607 mmHg 68%
    12:00 -4°C° 0 mm 3 mps 608 mmHg 64%
    13:00 -3°C° 0 mm 2 mps 608 mmHg 63%
    14:00 -3°C° 0 mm 2 mps 608 mmHg 62%
    15:00 -2°C° 0 mm 2 mps 608 mmHg 61%
    16:00 -2°C° 0 mm 1 mps 608 mmHg 62%
    17:00 -4°C° 0 mm 1 mps 608 mmHg 63%
    18:00 -7°C° 0 mm 1 mps 608 mmHg 64%
    19:00 -8°C° 0 mm 1 mps 608 mmHg 66%
    20:00 -8°C° 0 mm 1 mps 609 mmHg 67%
    21:00 -9°C° 0 mm 1 mps 609 mmHg 68%
    22:00 -9°C° 0 mm 1 mps 610 mmHg 69%
    23:00 -9°C° 0 mm 1 mps 610 mmHg 70%

    Day after tomorrow, 20 February, Wednesday

    Time Temperature Precipitation Wind Pressure Humidity
    00:00 -9°C° 0 mm 1 mps 610 mmHg 71%
    01:00 -9°C° 0 mm 1 mps 610 mmHg 70%
    02:00 -9°C° 0 mm 1 mps 610 mmHg 70%
    03:00 -9°C° 0 mm 1 mps 610 mmHg 69%
    04:00 -9°C° 0 mm 1 mps 610 mmHg 67%
    05:00 -9°C° 0 mm 1 mps 610 mmHg 65%
    06:00 -9°C° 0 mm 1 mps 610 mmHg 63%
    07:00 -8°C° 0 mm 1 mps 611 mmHg 62%
    08:00 -6°C° 0 mm 1 mps 612 mmHg 62%
    09:00 -4°C° 0 mm 1 mps 613 mmHg 62%
    10:00 -3°C° 0 mm 1 mps 613 mmHg 61%
    11:00 -1°C° 0 mm 1 mps 613 mmHg 59%
    12:00 0°C° 0 mm 1 mps 613 mmHg 58%
    13:00 0°C° 0 mm 1 mps 613 mmHg 59%
    14:00 0°C° 0 mm 1 mps 613 mmHg 60%
    15:00 +1°C° 0 mm 1 mps 613 mmHg 62%
    16:00 -1°C° 0 mm 1 mps 612 mmHg 62%
    17:00 -3°C° 0 mm 1 mps 611 mmHg 62%
    18:00 -6°C° 0 mm 1 mps 611 mmHg 63%
    19:00 -7°C° 0 mm 1 mps 611 mmHg 60%
    20:00 -7°C° 0 mm 1 mps 611 mmHg 57%
    21:00 -7°C° 0 mm 1 mps 611 mmHg 54%
    22:00 -8°C° 0 mm 1 mps 611 mmHg 53%
    23:00 -8°C° 0 mm 1 mps 611 mmHg 51%

    21 February, Thursday

    Time Temperature Precipitation Wind Pressure Humidity
    00:00 -8°C° 0 mm 1 mps 611 mmHg 49%
    01:00 -9°C° 0 mm 2 mps 611 mmHg 50%
    02:00 -9°C° 0 mm 2 mps 610 mmHg 52%
    03:00 -9°C° 0 mm 2 mps 610 mmHg 53%
    04:00 -9°C° 0 mm 2 mps 610 mmHg 55%
    05:00 -9°C° 0 mm 2 mps 610 mmHg 57%
    06:00 -9°C° 0 mm 2 mps 610 mmHg 59%
    07:00 -8°C° 0 mm 2 mps 610 mmHg 61%
    08:00 -7°C° 0 mm 2 mps 611 mmHg 63%
    09:00 -5°C° 0 mm 2 mps 611 mmHg 65%
    10:00 -4°C° 0 mm 2 mps 611 mmHg 63%
    11:00 -3°C° 0 mm 2 mps 611 mmHg 61%
    12:00 -2°C° 0 mm 3 mps 611 mmHg 59%
    13:00 -2°C° 0 mm 2 mps 610 mmHg 59%
    14:00 -2°C° 0 mm 2 mps 610 mmHg 59%
    15:00 -2°C° 0 mm 2 mps 610 mmHg 59%
    16:00 -3°C° 0 mm 2 mps 609 mmHg 59%
    17:00 -5°C° 0 mm 2 mps 609 mmHg 59%
    18:00 -7°C° 0 mm 2 mps 608 mmHg 59%
    19:00 -7°C° 0 mm 2 mps 609 mmHg 57%
    20:00 -8°C° 0 mm 2 mps 609 mmHg 55%
    21:00 -8°C° 0 mm 2 mps 609 mmHg 53%
    22:00 -8°C° 0 mm 2 mps 609 mmHg 54%
    23:00 -8°C° 0 mm 2 mps 609 mmHg 56%

    22 February, Friday

    Time Temperature Precipitation Wind Pressure Humidity
    00:00 -8°C° 0 mm 2 mps 609 mmHg 57%
    01:00 -9°C° 0 mm 2 mps 609 mmHg 60%
    02:00 -9°C° 0 mm 2 mps 609 mmHg 63%
    03:00 -9°C° 0 mm 2 mps 609 mmHg 67%
    04:00 -9°C° 0 mm 2 mps 609 mmHg 69%
    05:00 -9°C° 0 mm 2 mps 609 mmHg 71%
    06:00 -9°C° 0 mm 2 mps 609 mmHg 73%
    07:00 -8°C° 0 mm 2 mps 609 mmHg 73%
    08:00 -7°C° 0 mm 2 mps 610 mmHg 73%
    09:00 -6°C° 0 mm 2 mps 610 mmHg 74%
    10:00 -6°C° 0 mm 3 mps 610 mmHg 71%
    11:00 -5°C° 0 mm 3 mps 610 mmHg 69%
    12:00 -4°C° 0 mm 3 mps 610 mmHg 67%
    13:00 -4°C° 0 mm 3 mps 609 mmHg 67%
    14:00 -4°C° 0 mm 3 mps 609 mmHg 67%
    15:00 -4°C° 0 mm 3 mps 609 mmHg 67%
    16:00 -5°C° 0 mm 3 mps 608 mmHg 68%
    17:00 -6°C° 0 mm 2 mps 608 mmHg 70%
    18:00 -7°C° 0 mm 2 mps 607 mmHg 71%
    19:00 -7°C° 0 mm 2 mps 607 mmHg 71%
    20:00 -8°C° 0 mm 2 mps 608 mmHg 70%
    21:00 -8°C° 0 mm 2 mps 608 mmHg 69%
    22:00 -8°C° 0 mm 2 mps 608 mmHg 69%
    23:00 -8°C° 0 mm 2 mps 608 mmHg 70%

    23 February, Saturday

    Time Temperature Precipitation Wind Pressure Humidity
    00:00 -8°C° 0 mm 2 mps 608 mmHg 70%
    01:00 -9°C° 0 mm 2 mps 607 mmHg 71%
    02:00 -9°C° 0 mm 2 mps 607 mmHg 72%
    03:00 -9°C° 0 mm 2 mps 607 mmHg 73%
    04:00 -9°C° 0 mm 2 mps 607 mmHg 73%
    05:00 -9°C° 0 mm 2 mps 607 mmHg 73%
    06:00 -12°C° 0 mm 3 mps 606 mmHg 72%
    07:00 -10°C° 0 mm 3 mps 607 mmHg 72%
    08:00 -8°C° 0 mm 3 mps 607 mmHg 72%
    09:00 -7°C° 0 mm 3 mps 607 mmHg 72%
    10:00 -6°C° 0 mm 3 mps 607 mmHg 71%
    11:00 -5°C° 0 mm 4 mps 607 mmHg 70%
    12:00 -4°C° 0 mm 4 mps 607 mmHg 69%
    13:00 -4°C° 0 mm 4 mps 606 mmHg 69%
    14:00 -4°C° 0 mm 3 mps 606 mmHg 69%
    15:00 -4°C° 0 mm 3 mps 605 mmHg 69%
    16:00 -4°C° 0.1 mm 3 mps 605 mmHg 71%
    17:00 -4°C° 0.1 mm 2 mps 605 mmHg 74%
    18:00 -5°C° 0.1 mm 2 mps 605 mmHg 77%
    19:00 -5°C° 0.1 mm 2 mps 605 mmHg 78%
    20:00 -6°C° 0.1 mm 2 mps 605 mmHg 78%
    21:00 -4°C° 0.1 mm 1 mps 605 mmHg 79%
    22:00 -4°C° 0.1 mm 1 mps 605 mmHg 80%
    23:00 -4°C° 0.1 mm 1 mps 605 mmHg 81%
    Show more